Location: Unspecified
(41.1637°N, 24.2901°E)
Time: 10:58:01
(UTC+02:00)

ISS - Pass Details

Date: 07 May 2026
Orbit: 414 x 424 km, 51.6° (Epoch: 12 May)

Event Time Altitude Azimuth Distance (km) Brightness Sun altitude
Rises 21:39:24 0° 238° (WSW) 2,339 0.2 -21.1°
Reaches altitude 10° 21:41:29 10° 240° (WSW) 1,480 -0.9 -21.3°
Enters shadow 21:43:29 34° 249° (WSW) 708 -2.5 -21.6°
